Location: East Horndon
(51.5667°N, 0.3500°E)
Time: 23:51:26
(UTC+00:00)

ACS3 Solar Sail - Pass Details

Date: 08 November 2025
Orbit: 890 x 1003 km, 97.3° (Epoch: 04 December)

Event Time Altitude Azimuth Distance (km) Brightness Sun altitude
Rises 03:42:53 0° 12° (NNE) 3,530 5.0 -31.4°
Reaches altitude 10° 03:45:17 10° 12° (NNE) 2,595 4.3 -31.0°
Enters shadow 03:49:53 59° 7° (N) 1,054 1.9 -30.3°
